Weather History for Wainwright, AK

Change the Weather History Date:

Thursday, January 10, 2013

  Actual Average (PABR) Record (PABR)
Temperature  
Mean Temperature -19 °F -13 °F  
Max Temperature -16 °F -7 °F 28 °F (2011)
Min Temperature -22 °F -19 °F -47 °F (1952)
Degree Days  
Heating Degree Days 84 78  
Month to date heating degree days 773  
Since 1 July heating degree days 8980  
Cooling Degree Days 0    
Month to date cooling degree days  
Year to date cooling degree days  
Moisture  
Dew Point -25 °F    
Average Humidity 70    
Maximum Humidity 74    
Minimum Humidity 63    
Precipitation  
Precipitation 0.00 in 0.00 in 0.07 in (1971)
Month to date precipitation 0.04  
Year to date precipitation 0.04  
Snow  
Snow 0.00 in 0.10 in 0.70 in (1971)
Month to date snowfall 0.9  
Since 1 July snowfall 24.7  
Snow Depth -    
Sea Level Pressure  
Sea Level Pressure 30.11 in    
Wind  
Wind Speed 12 mph (ENE)    
Max Wind Speed 17 mph    
Max Gust Speed -    
Visibility 4 miles    
Events      
T = Trace of Precipitation, MM = Missing Value Source: NWS Daily Summary

Daily Weather History Graph

Daily Weather History Graph

Search for Another Location

Airport:

Trip Planner

Search our weather history database for the weather conditions in past years. The results will help you decide how hot, cold, wet, or windy it might be!

Date:

Astronomy

Jan. 10, 2013 Rise Set
Actual Time 1:15 PM AKST 2:20 PM AKST
Civil Twilight 11:20 AM AKST 4:15 PM AKST
Nautical Twilight 9:38 AM AKST 5:57 PM AKST
Astronomical Twilight 8:19 AM AKST 7:17 PM AKST
Moon No Moon Rise No Moon Set
Length of Visible Light 4h 55m
Length of Day
1h 04m
Waning Crescent, 1% of the Moon is Illuminated
Jan 10
Waning Crescent
Jan 11
New
Jan 18
First Quarter
Jan 26
Full
Feb 3
Last Quarter

Hourly Weather History & Observations

Time (AKST) Temp. Windchill Dew Point Humidity Pressure Visibility Wind Dir Wind Speed Gust Speed Precip Events Conditions
12:53 AM -18.9 °F -38.6 °F -25.1 °F 74% 30.11 in 10.0 mi NE 9.2 mph - N/A   Clear
1:53 AM -18.0 °F -36.1 °F -24.0 °F 74% 30.12 in 10.0 mi ENE 8.1 mph - N/A   Clear
2:50 AM -16.6 °F -35.7 °F -23.8 °F 70% 30.11 in 2.5 mi East 9.2 mph - N/A   Haze
3:01 AM -16.6 °F -34.4 °F -23.8 °F 70% 30.10 in 4.0 mi ENE 8.1 mph - N/A   Haze
3:53 AM -16.1 °F -39.1 °F -23.1 °F 71% 30.09 in 9.0 mi ENE 13.8 mph - N/A   Clear
4:25 AM -16.6 °F -38.9 °F -23.8 °F 70% 30.09 in 2.5 mi NE 12.7 mph - N/A   Haze
4:29 AM -16.6 °F -37.9 °F -23.8 °F 70% 30.09 in 3.0 mi NE 11.5 mph - N/A   Haze
4:37 AM -18.4 °F -41.2 °F -25.6 °F 70% 30.09 in 6.0 mi NE 12.7 mph - N/A   Haze
4:53 AM -18.0 °F -41.6 °F -24.0 °F 74% 30.09 in 7.0 mi NE 13.8 mph - N/A   Partly Cloudy
5:53 AM -17.0 °F -38.4 °F -24.0 °F 70% 30.09 in 4.0 mi East 11.5 mph - N/A   Haze
6:09 AM -16.6 °F -39.8 °F -23.8 °F 70% 30.09 in 4.0 mi ENE 13.8 mph - N/A   Haze
6:20 AM -16.6 °F -39.8 °F -23.8 °F 70% 30.09 in 3.0 mi ENE 13.8 mph - N/A   Haze
6:35 AM -16.6 °F -40.6 °F -23.8 °F 70% 30.09 in 3.0 mi ENE 15.0 mph - N/A   Haze
6:42 AM -16.6 °F -40.6 °F -23.8 °F 70% 30.09 in 3.0 mi ENE 15.0 mph - N/A   Haze
6:53 AM -18.0 °F -42.5 °F -25.1 °F 70% 30.09 in 4.0 mi ENE 15.0 mph - N/A   Haze
7:09 AM -18.4 °F -42.1 °F -25.6 °F 70% 30.09 in 4.0 mi ENE 13.8 mph - N/A   Haze
7:53 AM -17.0 °F -37.3 °F -24.0 °F 70% 30.10 in 3.0 mi East 10.4 mph - N/A   Haze
8:06 AM -16.6 °F -37.9 °F -23.8 °F 70% 30.10 in 4.0 mi East 11.5 mph - N/A   Haze
8:53 AM -16.1 °F -40.7 °F -24.0 °F 67% 30.10 in 3.0 mi ENE 16.1 mph - N/A   Haze
9:23 AM -16.6 °F -39.8 °F -23.8 °F 70% 30.10 in 2.5 mi ENE 13.8 mph - N/A   Haze
9:37 AM -16.6 °F -41.4 °F -23.8 °F 70% 30.10 in 3.0 mi ENE 16.1 mph - N/A   Haze
9:53 AM -17.0 °F -41.9 °F -24.0 °F 70% 30.11 in 4.0 mi ENE 16.1 mph - N/A   Haze
10:09 AM -16.6 °F -40.6 °F -23.8 °F 70% 30.10 in 4.0 mi ENE 15.0 mph - N/A   Haze
10:53 AM -17.0 °F -39.3 °F -23.1 °F 74% 30.12 in 5.0 mi ENE 12.7 mph - N/A   Haze
11:17 AM -16.6 °F -38.9 °F -23.8 °F 70% 30.12 in 7.0 mi ENE 12.7 mph - N/A   Mostly Cloudy
11:43 AM -16.6 °F -38.9 °F -23.8 °F 70% 30.12 in 6.0 mi ENE 12.7 mph - N/A   Haze
11:53 AM -17.0 °F -37.3 °F -24.0 °F 70% 30.13 in 6.0 mi ENE 10.4 mph - N/A   Haze
12:53 PM -18.0 °F -38.6 °F -24.0 °F 74% 30.13 in 5.0 mi East 10.4 mph - N/A   Haze
1:25 PM -18.4 °F -37.9 °F -25.6 °F 70% 30.12 in 6.0 mi East 9.2 mph - N/A   Haze
1:53 PM -18.0 °F -39.7 °F -25.1 °F 70% 30.13 in 5.0 mi East 11.5 mph - N/A   Haze
2:53 PM -18.0 °F -40.7 °F -25.1 °F 70% 30.13 in 4.0 mi ENE 12.7 mph - N/A   Haze
3:35 PM -18.4 °F -42.1 °F -25.6 °F 70% 30.13 in 2.5 mi ENE 13.8 mph - N/A   Haze
3:53 PM -18.0 °F -41.6 °F -25.1 °F 70% 30.14 in 2.5 mi ENE 13.8 mph - N/A   Haze
4:19 PM -18.4 °F -41.2 °F -25.6 °F 70% 30.14 in 3.0 mi East 12.7 mph - N/A   Haze
4:53 PM -18.0 °F -40.7 °F -25.1 °F 70% 30.14 in 3.0 mi East 12.7 mph - N/A   Haze
5:53 PM -20.0 °F -44.1 °F -26.0 °F 74% 30.14 in 3.0 mi ENE 13.8 mph - N/A   Haze
6:53 PM -20.9 °F -41.0 °F -27.9 °F 70% 30.14 in 3.0 mi ENE 9.2 mph - N/A   Haze
7:18 PM -20.2 °F -42.4 °F -27.4 °F 69% 30.13 in 2.5 mi ENE 11.5 mph - N/A   Haze
7:40 PM -20.2 °F -40.1 °F -27.4 °F 69% 30.14 in 2.5 mi East 9.2 mph - N/A   Haze
7:53 PM -20.9 °F -41.0 °F -27.9 °F 70% 30.14 in 2.5 mi East 9.2 mph - N/A   Haze
8:11 PM -20.2 °F -43.4 °F -27.4 °F 69% 30.13 in 3.0 mi ENE 12.7 mph - N/A   Haze
8:53 PM -20.9 °F -44.3 °F -27.9 °F 70% 30.14 in 3.0 mi ENE 12.7 mph - N/A   Haze
9:45 PM -22.0 °F -45.7 °F -29.2 °F 69% 30.12 in 2.5 mi NE 12.7 mph - N/A   Haze
9:53 PM -22.0 °F -49.1 °F -29.0 °F 70% 30.11 in 2.5 mi ENE 17.3 mph - N/A   Haze
10:15 PM -20.2 °F -46.0 °F -29.2 °F 63% 30.11 in 1.8 mi ENE 16.1 mph - N/A   Haze
10:23 PM -22.0 °F -48.4 °F -29.2 °F 69% 30.11 in 2.5 mi ENE 16.1 mph - N/A   Haze
10:41 PM -22.0 °F -44.7 °F -29.2 °F 69% 30.12 in 2.5 mi East 11.5 mph - N/A   Haze
10:53 PM -22.0 °F -46.6 °F -29.0 °F 70% 30.12 in 2.5 mi ENE 13.8 mph - N/A   Haze
11:53 PM -22.0 °F -46.6 °F -29.0 °F 70% 30.12 in 2.5 mi ENE 13.8 mph - N/A   Haze